Weather in Lesnoye

Russia / Saratov Oblast     51°34′30″N   42°45′35″E
В апреле 2022 года жителям России запретили посещать сайт meteo.paraplan.net по решению Генеральной прокуратуры. Аудитория сайта уменьшилась в 10 раз. Владельцы сайта не видят смысла в поддержке погодного сервера в таких условиях. Сайт будет закрыт в октябре.
temp.,
°C
wind,
m/s
gust,
m/s
humid.,
%
clouds,
%
prec.,
mm/h
press.,
hPa
HPBL,
m
4 october, tue
tue401:00+10se48707 0.0 1014123
04:00+10se410777 0.0 1015193
07:00+9sse4107997 0.0 1016208
10:00+13sse596499 0.0 1016417
13:00+17sse694745 0.0 10161371
16:00+18s694279 0.0 10161856
19:00+15sse41052100 0.0 1016236
22:00+14s71270100 0.2 1017708
5 october, wed
wed501:00+13sse6118795 0.8 1017439
04:00+12s51088100 0.9 1018417
07:00+11ssw499033 0.0 1018286
10:00+12sw59620 0.0 1019655
13:00+15sw684898 0.0 10191470
16:00+15sw7104658 0.0 10191908
19:00+11wsw49669 0.0 1020396
22:00+10wsw487174 0.0 1020471
6 october, thu
thu601:00+10w587712 0.1 1020670
04:00+7wsw389318 0.1 1021250
07:00+6wsw49965 0.0 1021279
10:00+9w587413 0.0 1021599
13:00+11wnw6873100 0.1 10211057
16:00+10wsw4885100 0.4 1021649
19:00+10w489069 0.2 1022541
22:00+10wsw2593100 0.3 1022229
7 october, fri
fri701:00+10wsw2593100 0.1 1023187
04:00+10sw379198 0.1 1022237
07:00+10sw4888100 0.0 1022250
10:00+13wsw587327 0.0 1022468
13:00+16w67599 0.0 1022943
16:00+18wnw67555 0.0 10221178
19:00+16nnw5766100 0.0 1023389
22:00+12nnw35792 0.0 1025115
8 october, sat
sat801:00+10nnw34880 0.0 102666
04:00+8nne33910 0.0 102763
07:00+7ne22920 0.0 102822
10:00+11e22730 0.0 1028297
13:00+15ese22520 0.0 1027794
16:00+17se22430 0.0 10251097
19:00+13ese22555 0.0 102511
22:00+12se34616 0.0 102554